{"data":{"norad_id":54804,"epoch":"2026-09-20T11:53:40.319520Z","epoch_age_seconds":93087,"freshness":"FRESH","line1":"1 54804U 22175AY  26263.49560555  .00000387  00000+0  22596-4 0  9991","line2":"2 54804  53.1596 217.4539 0001107  95.9952 264.1177 15.34392687209772","mean_motion":15.34392687,"eccentricity":0.0001107,"inclination_deg":53.1596,"raan_deg":217.4539,"arg_perigee_deg":95.9952,"mean_anomaly_deg":264.1177,"bstar":2.2596e-5,"rev_number":20977,"period_min":93.848205364915,"perigee_km":461.96769264983,"apogee_km":463.48225949133,"semimajor_km":6840.8619760706,"source":"CELESTRAK","updated_at":"2026-09-21T09:00:33.130048Z"}}